This is the latest recevied weather packets stored in our database for station/object W8DRH-13. If no packets are shown the sender has not sent any weather packets the latest 10 day(s).
| Time | Temp. | Humidity | Pressure | Rain* | Wind** | Luminosity | Snow |
|---|---|---|---|---|---|---|---|
| 1777597897 | 8.89° C | 67% | 1012.3 hPa | 0 mm | - | 0 W/m² | - |
| 1777597592 | 8.89° C | 66% | 1012.1 hPa | 0 mm | - | 0 W/m² | - |
| 1777597288 | 8.89° C | 67% | 1012 hPa | 0 mm | - | 0 W/m² | - |
| 1777596983 | 8.89° C | 68% | 1012.3 hPa | 0 mm | - | 0 W/m² | - |
| 1777596681 | 8.89° C | 67% | 1012.1 hPa | 0 mm | - | 0 W/m² | - |
| 1777596378 | 9.44° C | 66% | 1012 hPa | 0 mm | - | 0 W/m² | - |
| 1777596074 | 9.44° C | 65% | 1012.1 hPa | 0 mm | - | 0 W/m² | - |
| 1777595770 | 10° C | 66% | 1012 hPa | 0 mm | - | 0 W/m² | - |
| 1777595465 | 10° C | 63% | 1012.1 hPa | 0 mm | - | 0 W/m² | - |
| 1777595162 | 10.56° C | 62% | 1012.2 hPa | 0 mm | - | 1 W/m² | - |
| 1777594858 | 10.56° C | 61% | 1011.9 hPa | 0 mm | - | 4 W/m² | - |
| 1777594554 | 11.11° C | 59% | 1012 hPa | 0 mm | - | 6 W/m² | - |
| 1777594251 | 11.11° C | 59% | 1012.2 hPa | 0 mm | - | 10 W/m² | - |
| 1777593946 | 11.67° C | 57% | 1012.1 hPa | 0 mm | - | 13 W/m² | - |
| 1777593643 | 11.67° C | 56% | 1012.1 hPa | 0 mm | - | 17 W/m² | - |
| 1777593339 | 11.67° C | 57% | 1012.1 hPa | 0 mm | - | 20 W/m² | - |
| 1777593033 | 12.22° C | 57% | 1012 hPa | 0 mm | - | 26 W/m² | - |
| 1777592732 | 12.22° C | 56% | 1012 hPa | 0 mm | - | 34 W/m² | - |
| 1777592428 | 12.22° C | 54% | 1012.2 hPa | 0 mm | - | 43 W/m² | - |
| 1777592124 | 12.22° C | 54% | 1012 hPa | 0 mm | - | 48 W/m² | - |
| 1777591822 | 12.22° C | 55% | 1012 hPa | 0 mm | - | 69 W/m² | - |
| 1777591517 | 11.67° C | 55% | 1012.3 hPa | 0 mm | - | 59 W/m² | - |
| 1777591213 | 11.67° C | 54% | 1012.2 hPa | 0 mm | - | 52 W/m² | - |
| 1777590909 | 11.67° C | 53% | 1012.3 hPa | 0 mm | - | 47 W/m² | - |
| 1777590604 | 11.67° C | 53% | 1012.4 hPa | 0 mm | - | 69 W/m² | - |
* Rain latest hour (hover to see other rain measurements)
** Current wind speed in m/s (hover to see current wind gust speed)